Weather History for Chipley, FL

Change the Weather History Date:

Tuesday, September 10, 2013

  Actual Average (KMAI) Record (KMAI)
Temperature  
Mean Temperature 84 °F 79 °F  
Max Temperature 89 °F 89 °F 99 °F (2010)
Min Temperature 80 °F 69 °F 61 °F (2011)
Degree Days  
Heating Degree Days 0    
Month to date heating degree days  
Since 1 July heating degree days  
Cooling Degree Days 20    
Month to date cooling degree days  
Year to date cooling degree days  
Growing Degree Days 34 (Base 50)    
Moisture  
Dew Point 71 °F    
Average Humidity 65    
Maximum Humidity 79    
Minimum Humidity 52    
Precipitation  
Precipitation 0.01 in 0.13 in 0.45 in (2004)
Month to date precipitation 1.29  
Year to date precipitation 39.62  
Sea Level Pressure  
Sea Level Pressure 30.07 in    
Wind  
Wind Speed 3 mph (East)    
Max Wind Speed 10 mph    
Max Gust Speed 17 mph    
Visibility 10 miles    
Events      
T = Trace of Precipitation, MM = Missing Value Source: NWS Daily Summary

Daily Weather History Graph

Daily Weather History Graph

Search for Another Location

Airport:

Trip Planner

Search our weather history database for the weather conditions in past years. The results will help you decide how hot, cold, wet, or windy it might be!

Date:

Astronomy

Sep. 10, 2013 Rise Set
Actual Time 6:24 AM CDT 6:53 PM CDT
Civil Twilight 5:59 AM CDT 7:18 PM CDT
Nautical Twilight 5:31 AM CDT 7:46 PM CDT
Astronomical Twilight 5:02 AM CDT 8:15 PM CDT
Moon 11:25 AM CDT (9/10) 10:21 PM CDT (9/10)
Length of Visible Light 13h 18m
Length of Day
12h 29m
Waxing Crescent, 28% of the Moon is Illuminated
Sep 10
Waxing Crescent
Sep 12
First Quarter
Sep 19
Full
Sep 26
Last Quarter
Oct 4
New

Hourly Weather History & Observations

Time (CDT) Temp. Heat Index Dew Point Humidity Pressure Visibility Wind Dir Wind Speed Gust Speed Precip Events Conditions
12:15 AM 82.4 °F 86.3 °F 69.8 °F 66% 30.03 in 10.0 mi SE 3.5 mph - N/A   Clear
12:35 AM 80.6 °F 83.9 °F 69.8 °F 70% 30.03 in 10.0 mi Calm Calm - N/A   Clear
12:55 AM 80.6 °F 83.9 °F 69.8 °F 70% 30.03 in 10.0 mi ESE 3.5 mph - N/A   Clear
1:15 AM 80.6 °F 83.9 °F 69.8 °F 70% 30.03 in 10.0 mi Calm Calm - N/A   Clear
1:35 AM 80.6 °F 83.9 °F 69.8 °F 70% 30.03 in 10.0 mi SE 3.5 mph - N/A   Clear
1:55 AM 80.6 °F 83.9 °F 69.8 °F 70% 30.03 in 10.0 mi Calm Calm - N/A   Clear
2:15 AM 80.6 °F 83.9 °F 69.8 °F 70% 30.03 in 10.0 mi Calm Calm - N/A   Clear
2:35 AM 80.6 °F 83.9 °F 69.8 °F 70% 30.03 in 10.0 mi East 3.5 mph - N/A   Clear
2:55 AM 80.6 °F 83.9 °F 69.8 °F 70% 30.03 in 10.0 mi East 3.5 mph - N/A   Clear
3:15 AM 80.6 °F 83.2 °F 68.0 °F 65% 30.03 in 10.0 mi Calm Calm - N/A   Clear
3:35 AM 80.6 °F 83.2 °F 68.0 °F 65% 30.03 in 10.0 mi SE 3.5 mph - N/A   Clear
3:55 AM 80.6 °F 83.2 °F 68.0 °F 65% 30.03 in 10.0 mi East 3.5 mph - N/A   Clear
4:15 AM 80.6 °F 82.7 °F 66.2 °F 61% 30.03 in 10.0 mi East 3.5 mph - N/A   Clear
4:35 AM 82.4 °F 84.6 °F 66.2 °F 58% 30.04 in 10.0 mi Calm Calm - N/A   Clear
4:55 AM 82.4 °F 84.6 °F 66.2 °F 58% 30.04 in 10.0 mi Calm Calm - N/A   Clear
5:15 AM 80.6 °F 83.2 °F 68.0 °F 65% 30.04 in 10.0 mi Calm Calm - N/A   Clear
5:35 AM 80.6 °F 83.2 °F 68.0 °F 65% 30.05 in 10.0 mi Calm Calm - N/A   Clear
5:55 AM 80.6 °F 83.9 °F 69.8 °F 70% 30.06 in 10.0 mi Calm Calm - N/A   Clear
6:15 AM 80.6 °F 83.9 °F 69.8 °F 70% 30.06 in 10.0 mi Calm Calm - N/A   Clear
6:35 AM 80.6 °F 83.9 °F 69.8 °F 70% 30.07 in 10.0 mi NE 3.5 mph - N/A   Clear
6:55 AM 80.6 °F 84.6 °F 71.6 °F 74% 30.07 in 10.0 mi ENE 4.6 mph - N/A   Clear
7:15 AM 80.6 °F 84.6 °F 71.6 °F 74% 30.08 in 10.0 mi NE 5.8 mph - N/A   Clear
7:35 AM 80.6 °F 84.6 °F 71.6 °F 74% 30.09 in 10.0 mi NE 3.5 mph - N/A   Clear
7:55 AM 80.6 °F 84.6 °F 71.6 °F 74% 30.09 in 10.0 mi NE 5.8 mph - N/A   Clear
8:15 AM 80.6 °F 85.4 °F 73.4 °F 79% 30.10 in 10.0 mi ENE 5.8 mph - N/A   Clear
8:35 AM 82.4 °F 88.2 °F 73.4 °F 74% 30.10 in 10.0 mi NE 4.6 mph - N/A   Clear
8:55 AM 82.4 °F 88.2 °F 73.4 °F 74% 30.11 in 10.0 mi NE 6.9 mph - N/A   Clear
9:15 AM 84.2 °F 90.9 °F 73.4 °F 70% 30.11 in 10.0 mi NE 6.9 mph - N/A   Clear
9:35 AM 84.2 °F 90.9 °F 73.4 °F 70% 30.11 in 10.0 mi Calm Calm - N/A   Clear
9:55 AM 86.0 °F 93.4 °F 73.4 °F 66% 30.11 in 10.0 mi NE 5.8 mph - N/A   Clear
10:15 AM 84.2 °F 89.6 °F 71.6 °F 66% 30.11 in 10.0 mi East 5.8 mph - N/A   Scattered Clouds
10:35 AM 86.0 °F 91.8 °F 71.6 °F 62% 30.11 in 10.0 mi East 4.6 mph - N/A   Mostly Cloudy
10:55 AM 84.2 °F 89.6 °F 71.6 °F 66% 30.11 in 10.0 mi NNE 4.6 mph - N/A   Mostly Cloudy
11:15 AM 86.0 °F 93.4 °F 73.4 °F 66% 30.11 in 10.0 mi ENE 5.8 mph - N/A   Mostly Cloudy
11:35 AM 84.2 °F 87.3 °F 68.0 °F 58% 30.12 in 10.0 mi East 10.4 mph 17.3 mph N/A   Scattered Clouds
11:55 AM 82.4 °F 87.2 °F 71.6 °F 70% 30.12 in 9.0 mi ENE 4.6 mph - 0.01 in   Scattered Clouds
12:15 PM 84.2 °F 90.9 °F 73.4 °F 70% 30.11 in 10.0 mi ENE 5.8 mph - N/A   Partly Cloudy
12:35 PM 84.2 °F 90.9 °F 73.4 °F 70% 30.11 in 10.0 mi NNE 4.6 mph - N/A   Clear
12:55 PM 86.0 °F 93.4 °F 73.4 °F 66% 30.10 in 10.0 mi ENE 6.9 mph - N/A   Clear
1:15 PM 86.0 °F 93.4 °F 73.4 °F 66% 30.11 in 10.0 mi East 8.1 mph - N/A   Partly Cloudy
1:35 PM 86.0 °F 91.8 °F 71.6 °F 62% 30.10 in 10.0 mi Calm Calm - N/A   Partly Cloudy
1:55 PM 86.0 °F 91.8 °F 71.6 °F 62% 30.10 in 10.0 mi ENE 3.5 mph - N/A   Clear
2:15 PM 86.0 °F 91.8 °F 71.6 °F 62% 30.09 in 10.0 mi East 6.9 mph - N/A   Clear
2:35 PM 87.8 °F 93.8 °F 71.6 °F 58% 30.08 in 10.0 mi East 3.5 mph - N/A   Clear
2:55 PM 87.8 °F 93.8 °F 71.6 °F 58% 30.08 in 10.0 mi East 4.6 mph - N/A   Partly Cloudy
3:15 PM 87.8 °F 93.8 °F 71.6 °F 58% 30.07 in 10.0 mi SE 8.1 mph - N/A   Scattered Clouds
3:35 PM 87.8 °F 93.8 °F 71.6 °F 58% 30.07 in 10.0 mi South 4.6 mph - N/A   Partly Cloudy
3:55 PM 87.8 °F 93.8 °F 71.6 °F 58% 30.06 in 10.0 mi Calm Calm - N/A   Partly Cloudy
4:15 PM 89.6 °F 96.2 °F 71.6 °F 55% 30.05 in 10.0 mi ENE 3.5 mph - N/A   Mostly Cloudy
4:35 PM 89.6 °F 94.7 °F 69.8 °F 52% 30.05 in 10.0 mi Calm Calm - N/A   Overcast
4:55 PM 89.6 °F 94.7 °F 69.8 °F 52% 30.05 in 10.0 mi SE 10.4 mph - N/A   Overcast
5:15 PM 87.8 °F 92.6 °F 69.8 °F 55% 30.04 in 10.0 mi SE 5.8 mph - N/A   Scattered Clouds
5:35 PM 87.8 °F 92.6 °F 69.8 °F 55% 30.05 in 10.0 mi SSE 8.1 mph - N/A   Scattered Clouds
5:55 PM 87.8 °F 92.6 °F 69.8 °F 55% 30.05 in 10.0 mi Calm Calm - N/A   Partly Cloudy
6:15 PM 86.0 °F 90.4 °F 69.8 °F 58% 30.05 in 10.0 mi SE 4.6 mph - N/A   Clear
6:35 PM 86.0 °F 90.4 °F 69.8 °F 58% 30.05 in 10.0 mi SSE 5.8 mph - N/A   Clear
6:55 PM 84.2 °F 88.4 °F 69.8 °F 62% 30.06 in 10.0 mi Calm Calm - N/A   Clear
7:15 PM 84.2 °F 88.4 °F 69.8 °F 62% 30.07 in 10.0 mi ESE 4.6 mph - N/A   Clear
7:35 PM 84.2 °F 88.4 °F 69.8 °F 62% 30.07 in 10.0 mi SSE 4.6 mph - N/A   Clear
7:55 PM 84.2 °F 89.6 °F 71.6 °F 66% 30.07 in 10.0 mi SSE 4.6 mph - N/A   Clear
8:15 PM 84.2 °F 89.6 °F 71.6 °F 66% 30.07 in 10.0 mi ESE 3.5 mph - N/A   Clear
8:35 PM 82.4 °F 87.2 °F 71.6 °F 70% 30.08 in 10.0 mi SE 3.5 mph - N/A   Clear
8:55 PM 82.4 °F 87.2 °F 71.6 °F 70% 30.08 in 10.0 mi Calm Calm - N/A   Clear
9:15 PM 82.4 °F 87.2 °F 71.6 °F 70% 30.09 in 10.0 mi East 4.6 mph - N/A   Clear
9:35 PM 82.4 °F 87.2 °F 71.6 °F 70% 30.10 in 10.0 mi ESE 3.5 mph - N/A   Clear
9:55 PM 82.4 °F 87.2 °F 71.6 °F 70% 30.11 in 10.0 mi Calm Calm - N/A   Clear
10:15 PM 82.4 °F 86.3 °F 69.8 °F 66% 30.11 in 10.0 mi East 5.8 mph - N/A   Clear
10:35 PM 82.4 °F 86.3 °F 69.8 °F 66% 30.10 in 10.0 mi Calm Calm - N/A   Clear
10:55 PM 82.4 °F 86.3 °F 69.8 °F 66% 30.10 in 10.0 mi Calm Calm - N/A   Clear
11:15 PM 82.4 °F 86.3 °F 69.8 °F 66% 30.10 in 10.0 mi East 4.6 mph - N/A   Clear
11:35 PM 82.4 °F 86.3 °F 69.8 °F 66% 30.09 in 10.0 mi East 4.6 mph - N/A   Clear
11:55 PM 82.4 °F 86.3 °F 69.8 °F 66% 30.08 in 10.0 mi SE 3.5 mph - N/A   Clear